Погода в Хахалах

Россия / Нижегородская область     56°39′12″N   44°40′34″E
темп.,
°C
ветер,
м/с
пор.,
м/с
влажн.,
%
обл.,
%
осадки,
мм/ч
давл.,
гПа
погр.,
м
16 мая, вс
вс1600:00+16ю279751 2.2 1013160
03:00+15ю229711 2.2 101343
06:00+17ю259111 0.0 1013161
09:00+22юз46675 0.0 1013803
12:00+24юз584368 0.0 10131761
15:00+24юз57430 0.0 10131880
18:00+22юз36560 0.0 1013369
21:00+17юз227624 0.0 101431
17 мая, пн
пн1700:00+16зюз25789 0.0 1015117
03:00+13з22874 0.0 101616
06:00+16юз117716 0.0 101784
09:00+22зюз12555 0.0 1018651
12:00+26юз13404 0.0 10171503
15:00+27ююз1239100 0.0 10171717
18:00+25юв015556 0.0 101717
21:00+19в2277100 0.0 101728
18 мая, вт
вт1800:00+17вюв3680100 0.0 1017103
03:00+16вюв2592100 0.1 101788
06:00+18вюв258399 0.0 1018158
09:00+23вюв4655100 0.0 1018457
12:00+27юв4744100 0.0 10171295
15:00+28юв4636100 0.0 10162224
18:00+25юв385068 0.0 1016290
21:00+20вюв31378100 0.0 1016339
19 мая, ср
ср1900:00+18вюв3138299 0.0 1016348
03:00+16вюв3128819 0.0 1016261
06:00+19вюв411777 0.0 1016372
09:00+24юв58527 0.0 1016681
12:00+28вюв68395 0.0 10151752
15:00+28юв67390 0.0 10142328
18:00+24вюв610560 0.0 1013898
21:00+20вюв514630 0.0 1013518
20 мая, чт
чт2000:00+17вюв314690 0.0 1012453
03:00+15вюв310790 0.0 1011236
06:00+16юв4108498 0.3 1011467
09:00+21ююв596354 0.6 10101351
12:00+21ююв6105637 0.5 10101788
15:00+21ю6125360 0.7 10101880
18:00+18ю5106240 0.1 10101380
21:00+15ю4107410 0.1 1011635